Lee's Summit, MO

10:14 PM CDT on July 29, 2016 (GMT -0500)
Lee's Summit Municipal

Weather History for KLXT - February, 2013

Change the Weather History Date:

Thursday, February 21, 2013

  Actual Average (KMKC) Record (KMKC)
Temperature  
Mean Temperature 24 °F -  
Max Temperature 26 °F 44 °F 66 °F (2000)
Min Temperature 21 °F 28 °F 15 °F (2008)
Degree Days  
Heating Degree Days 42    
Moisture  
Dew Point 20 °F    
Average Humidity 86    
Maximum Humidity 93    
Minimum Humidity 65    
Precipitation  
Precipitation 0.35 in - - ()
Sea Level Pressure  
Sea Level Pressure 29.88 in    
Wind  
Wind Speed 14 mph (ENE)    
Max Wind Speed 34 mph    
Max Gust Speed 118 mph    
Visibility 2 miles    
Events Fog , Snow , Thunderstorm    
Averages and records for this station are not official NWS values.
T = Trace of Precipitation, MM = Missing Value Source: NWS Daily Summary

Daily Weather History Graph

Daily Weather History Graph

Search for Another Location

Airport or City:

Trip Planner

Search our weather history database for the weather conditions in past years. The results will help you decide how hot, cold, wet, or windy it might be!

Date:

Astronomy

Feb. 21, 2013 Rise Set
Actual Time 7:00 AM CST 6:01 PM CST
Civil Twilight 6:33 AM CST 6:28 PM CST
Nautical Twilight 6:02 AM CST 7:00 PM CST
Astronomical Twilight 5:31 AM CST 7:30 PM CST
Moon 2:18 PM CST (2/21) 4:04 AM CST (2/21)
Length of Visible Light 11h 55m
Length of Day
11h 01m
Waxing Gibbous, 84% of the Moon is Illuminated
Feb 21
Waxing Gibbous
Feb 25
Full
Mar 4
Last Quarter
Mar 11
New
Mar 19
First Quarter

Hourly Weather History & Observations

Time (CST) Temp. Windchill Dew Point Humidity Pressure Visibility Wind Dir Wind Speed Gust Speed Precip Events Conditions
12:53 AM 21.9 °F - 12.9 °F 68% 30.21 in 10.0 mi North - - N/A   Overcast
1:53 AM 21.9 °F 9.8 °F 12.0 °F 66% 30.19 in 10.0 mi ENE 12.7 mph 21.9 mph N/A   Overcast
2:53 AM 21.0 °F 7.6 °F 12.0 °F 68% 30.14 in 10.0 mi ENE 15.0 mph - N/A   Mostly Cloudy
3:53 AM 21.0 °F 9.3 °F 12.9 °F 71% 30.15 in 10.0 mi East 11.5 mph - N/A   Overcast
4:53 AM 21.0 °F 7.6 °F 12.9 °F 71% 30.12 in 10.0 mi ENE 15.0 mph - N/A   Overcast
5:53 AM 23.0 °F 10.1 °F 12.9 °F 65% 30.10 in 10.0 mi East 15.0 mph 23.0 mph N/A   Overcast
6:49 AM 21.2 °F 7.3 °F 15.8 °F 80% 30.01 in 1.8 mi East 16.1 mph 21.9 mph 0.00 in Snow Light Snow
6:53 AM 21.9 °F 7.3 °F 15.1 °F 75% 30.05 in 1.0 mi East 18.4 mph 21.9 mph 0.00 in Snow Light Snow
7:11 AM 21.2 °F 7.8 °F 17.6 °F 86% 30.02 in 0.8 mi East 15.0 mph - 0.01 in Snow Light Snow
7:19 AM 21.2 °F 6.0 °F 17.6 °F 86% 29.99 in 0.5 mi ENE 19.6 mph 24.2 mph 0.02 in Fog , Snow Snow
7:29 AM 21.2 °F 7.3 °F 17.6 °F 86% 30.00 in 0.2 mi ENE 16.1 mph 24.2 mph 0.03 in Fog , Snow Heavy Snow
7:39 AM 21.2 °F 8.3 °F 17.6 °F 86% 30.03 in 0.2 mi ENE 13.8 mph 24.2 mph 0.05 in Fog , Snow Heavy Snow
7:53 AM 21.0 °F 7.6 °F 18.0 °F 88% 30.06 in 0.2 mi ENE 15.0 mph - 0.06 in Fog , Snow Heavy Snow
8:08 AM 21.2 °F 8.3 °F 17.6 °F 86% 30.03 in 0.2 mi ENE 13.8 mph - 0.02 in Fog , Snow Heavy Snow
8:32 AM 21.2 °F 8.9 °F 17.6 °F 86% 30.05 in 0.2 mi ENE 12.7 mph - 0.07 in Fog , Snow Heavy Snow
8:46 AM 21.2 °F 6.4 °F 17.6 °F 86% 30.03 in 0.2 mi ENE 18.4 mph 79.4 mph 0.10 in Fog , Snow Heavy Snow
8:53 AM 21.0 °F 7.1 °F 18.0 °F 88% 30.07 in 0.2 mi ENE 16.1 mph 79.4 mph 0.11 in Fog , Snow Heavy Snow
9:13 AM 21.2 °F - 17.6 °F 86% 29.99 in 0.2 mi North - - 0.02 in Fog , Snow , Thunderstorm Heavy Snow
9:22 AM 21.2 °F - 17.6 °F 86% 29.98 in 0.2 mi North - - 0.03 in Fog , Snow Heavy Snow
9:31 AM 21.2 °F 6.8 °F 17.6 °F 86% 29.98 in 0.2 mi ENE 17.3 mph 31.1 mph 0.03 in Fog , Snow Heavy Snow
9:38 AM 21.2 °F - 17.6 °F 86% 29.97 in 0.2 mi North - - 0.04 in Fog , Snow Heavy Snow
9:49 AM 21.2 °F 4.9 °F 17.6 °F 86% 29.95 in 0.2 mi ENE 23.0 mph 118.5 mph 0.05 in Fog , Snow Heavy Snow
9:53 AM 21.0 °F 1.7 °F 18.0 °F 88% 29.99 in 0.2 mi NE 34.5 mph 158.8 mph 0.06 in Fog , Snow Heavy Snow
10:00 AM 21.2 °F 7.3 °F 17.6 °F 86% 29.95 in 0.2 mi ENE 16.1 mph 150.8 mph 0.01 in Fog , Snow Heavy Snow
10:09 AM 21.2 °F 2.4 °F 17.6 °F 86% 29.93 in 0.2 mi ENE 32.2 mph 165.7 mph 0.01 in Fog , Snow Heavy Snow
10:30 AM 21.2 °F 5.6 °F 17.6 °F 86% 29.90 in 0.2 mi ENE 20.7 mph 41.4 mph 0.02 in Fog , Snow Heavy Snow
10:53 AM 21.9 °F 5.1 °F 18.0 °F 85% 29.94 in 0.2 mi East 25.3 mph 31.1 mph 0.03 in Fog , Snow Heavy Snow
11:44 AM 21.2 °F 7.3 °F 19.4 °F 93% 29.90 in 0.5 mi East 16.1 mph 26.5 mph 0.03 in Fog , Snow Snow
11:53 AM 21.9 °F 7.8 °F 19.0 °F 89% 29.94 in 0.5 mi East 17.3 mph 28.8 mph 0.04 in Fog , Snow Snow
12:23 PM 23.0 °F 8.7 °F 19.4 °F 86% 29.87 in 0.8 mi East 18.4 mph 26.5 mph 0.00 in Snow Light Snow
12:31 PM 23.0 °F 8.0 °F 19.4 °F 86% 29.86 in 1.0 mi East 20.7 mph 27.6 mph 0.01 in Snow Light Snow
12:53 PM 24.1 °F 10.6 °F 19.0 °F 81% 29.89 in 1.5 mi East 17.3 mph 26.5 mph 0.01 in Snow Light Snow
1:14 PM 24.8 °F 10.3 °F 19.4 °F 80% 29.83 in 1.5 mi East 20.7 mph 29.9 mph 0.00 in Snow Light Snow
1:26 PM 24.8 °F 10.3 °F 19.4 °F 80% 29.82 in 2.5 mi East 20.7 mph 29.9 mph 0.00 in   Overcast
1:35 PM 24.8 °F 10.3 °F 19.4 °F 80% 29.82 in 3.0 mi East 20.7 mph 31.1 mph 0.00 in   Overcast
1:53 PM 24.1 °F 10.1 °F 19.9 °F 84% 29.85 in 3.0 mi East 18.4 mph 31.1 mph 0.00 in   Overcast
2:01 PM 24.8 °F 11.5 °F 21.2 °F 86% 29.80 in 2.5 mi East 17.3 mph - N/A   Overcast
2:19 PM 24.8 °F 11.9 °F 21.2 °F 86% 29.80 in 2.0 mi East 16.1 mph - N/A   Overcast
2:53 PM 25.0 °F 11.3 °F 21.0 °F 85% 29.83 in 2.0 mi East 18.4 mph 25.3 mph N/A   Overcast
3:37 PM 24.8 °F 11.5 °F 21.2 °F 86% 29.77 in 2.0 mi East 17.3 mph - N/A   Overcast
3:53 PM 26.1 °F 14.0 °F 23.0 °F 88% 29.81 in 2.0 mi East 15.0 mph - N/A   Overcast
4:23 PM 26.6 °F 14.7 °F 23.0 °F 86% 29.77 in 3.0 mi East 15.0 mph 24.2 mph N/A   Overcast
4:45 PM 26.6 °F 15.2 °F 24.8 °F 93% 29.76 in 2.5 mi East 13.8 mph - N/A   Overcast
4:53 PM 26.1 °F 15.0 °F 24.1 °F 92% 29.80 in 2.5 mi East 12.7 mph - N/A   Overcast
5:09 PM 26.6 °F 16.8 °F 24.8 °F 93% 29.77 in 1.8 mi East 10.4 mph - 0.00 in Snow Light Snow
5:35 PM 26.6 °F 19.1 °F 24.8 °F 93% 29.77 in 0.5 mi East 6.9 mph - 0.01 in Fog , Snow Snow
5:53 PM 26.1 °F 17.6 °F 23.0 °F 88% 29.81 in 0.5 mi East 8.1 mph - 0.01 in Fog , Snow Snow
6:05 PM 26.6 °F 18.2 °F 23.0 °F 86% 29.77 in 0.5 mi ENE 8.1 mph - 0.01 in Fog , Snow Light Snow
6:19 PM 26.6 °F 19.1 °F 23.0 °F 86% 29.77 in 1.5 mi ENE 6.9 mph - 0.01 in Snow Light Snow
6:45 PM 26.6 °F 21.2 °F 23.0 °F 86% 29.77 in 1.8 mi NE 4.6 mph - 0.01 in Snow Light Snow
6:53 PM 26.1 °F 19.4 °F 23.0 °F 88% 29.81 in 2.0 mi NE 5.8 mph - 0.01 in Snow Light Snow
7:06 PM 26.6 °F 20.0 °F 23.0 °F 86% 29.76 in 1.2 mi NE 5.8 mph - 0.00 in Snow Light Snow
7:16 PM 24.8 °F 16.9 °F 23.0 °F 93% 29.76 in 1.0 mi ENE 6.9 mph - 0.00 in Snow Light Snow
7:23 PM 24.8 °F 17.9 °F 23.0 °F 93% 29.76 in 1.0 mi ENE 5.8 mph - 0.00 in Snow Light Snow
7:37 PM 26.6 °F 20.0 °F 23.0 °F 86% 29.76 in 0.8 mi NE 5.8 mph - 0.01 in Snow Light Snow
7:53 PM 25.0 °F 20.7 °F 23.0 °F 92% 29.81 in 1.0 mi NE 3.5 mph - 0.02 in Snow Light Snow
8:00 PM 24.8 °F 20.5 °F 23.0 °F 93% 29.77 in 2.0 mi NNE 3.5 mph - 0.00 in Snow Light Snow
8:11 PM 24.8 °F 20.5 °F 23.0 °F 93% 29.77 in 3.0 mi NE 3.5 mph - 0.00 in Snow Light Snow
8:21 PM 24.8 °F 20.5 °F 23.0 °F 93% 29.77 in 3.0 mi NE 3.5 mph - 0.00 in Snow Light Snow
8:33 PM 24.8 °F 19.1 °F 23.0 °F 93% 29.76 in 3.0 mi NNE 4.6 mph - 0.00 in Snow Light Snow
8:46 PM 24.8 °F 17.9 °F 23.0 °F 93% 29.76 in 3.0 mi NE 5.8 mph - 0.00 in Snow Light Snow
8:51 PM 24.8 °F 17.9 °F 23.0 °F 93% 29.76 in 1.8 mi NE 5.8 mph - 0.00 in Snow Light Snow
8:53 PM 25.0 °F 18.1 °F 23.0 °F 92% 29.80 in 1.5 mi NE 5.8 mph - 0.00 in Snow Light Snow
9:04 PM 24.8 °F 16.9 °F 23.0 °F 93% 29.76 in 3.0 mi NE 6.9 mph - 0.00 in Snow Light Snow
9:44 PM 24.8 °F 20.5 °F 23.0 °F 93% 29.76 in 6.0 mi NE 3.5 mph - 0.00 in   Overcast
9:53 PM 26.1 °F 20.5 °F 23.0 °F 88% 29.80 in 7.0 mi ENE 4.6 mph - 0.00 in   Overcast
10:00 PM 26.6 °F 20.0 °F 23.0 °F 86% 29.76 in 5.0 mi ENE 5.8 mph - N/A   Overcast
10:17 PM 26.6 °F 21.2 °F 24.8 °F 93% 29.76 in 2.5 mi ENE 4.6 mph - N/A   Overcast
10:30 PM 26.6 °F 20.0 °F 23.0 °F 86% 29.76 in 1.5 mi ENE 5.8 mph - 0.00 in Snow Light Snow
10:53 PM 26.1 °F 21.9 °F 23.0 °F 88% 29.80 in 1.5 mi NE 3.5 mph - 0.00 in Snow Light Snow
11:06 PM 26.6 °F 22.6 °F 24.8 °F 93% 29.76 in 2.5 mi ENE 3.5 mph - 0.00 in Snow Light Snow
11:14 PM 26.6 °F 22.6 °F 24.8 °F 93% 29.76 in 4.0 mi NE 3.5 mph - 0.00 in   Overcast
11:25 PM 26.6 °F 22.6 °F 24.8 °F 93% 29.76 in 6.0 mi ENE 3.5 mph - 0.00 in   Overcast
11:53 PM 26.1 °F 21.9 °F 24.1 °F 92% 29.80 in 7.0 mi ENE 3.5 mph - 0.00 in   Overcast